Weather History for Valparaiso, FL

Change the Weather History Date:

Monday, July 22, 2013

  Actual Average Record
Temperature  
Mean Temperature 78 °F -  
Max Temperature 85 °F 89 °F 97 °F (1962)
Min Temperature 72 °F 71 °F 46 °F (1997)
Cooling Degree Days 13    
Growing Degree Days 28 (Base 50)    
Moisture  
Dew Point 74 °F    
Average Humidity 90    
Maximum Humidity 96    
Minimum Humidity 77    
Precipitation  
Precipitation 1.08 in - - ()
Sea Level Pressure  
Sea Level Pressure 30.06 in    
Wind  
Wind Speed 6 mph (WSW)    
Max Wind Speed 16 mph    
Max Gust Speed 28 mph    
Visibility 7 miles    
Events Rain , Thunderstorm    
Averages and records for this station are not official NWS values.
T = Trace of Precipitation, MM = Missing Value Source: NWS Daily Summary

Daily Weather History Graph

Daily Weather History Graph

Search for Another Location

Airport:

Trip Planner

Search our weather history database for the weather conditions in past years. The results will help you decide how hot, cold, wet, or windy it might be!

Date:

Astronomy

Jul. 22, 2013 Rise Set
Actual Time 5:58 AM CDT 7:46 PM CDT
Civil Twilight 5:31 AM CDT 8:13 PM CDT
Nautical Twilight 4:59 AM CDT 8:45 PM CDT
Astronomical Twilight 4:25 AM CDT 9:19 PM CDT
Moon 7:38 PM CDT (7/22) 5:49 AM CDT (7/22)
Length of Visible Light 14h 41m
Length of Day
13h 48m
Full, 100% of the Moon is Illuminated
Jul 22
Full
Jul 22
Full
Jul 29
Last Quarter
Aug 6
New
Aug 14
First Quarter

Hourly Weather History & Observations

Time (CDT) Temp. Heat Index Dew Point Humidity Pressure Visibility Wind Dir Wind Speed Gust Speed Precip Events Conditions
12:55 AM 79.2 °F - 74.1 °F 84% 30.07 in 10.0 mi SSW 4.6 mph - N/A   Mostly Cloudy
1:39 AM 78.8 °F - 75.2 °F 89% 30.04 in 10.0 mi SSW 5.8 mph - N/A   Mostly Cloudy
1:55 AM 80.1 °F 84.8 °F 74.7 °F 83% 30.06 in 10.0 mi SSW 5.8 mph - N/A   Mostly Cloudy
2:41 AM 80.6 °F 86.2 °F 75.2 °F 84% 30.03 in 10.0 mi SSW 5.8 mph - N/A   Mostly Cloudy
2:55 AM 80.1 °F 85.2 °F 75.4 °F 86% 30.04 in 10.0 mi SW 5.8 mph - N/A   Mostly Cloudy
3:55 AM 80.2 °F 85.7 °F 75.7 °F 86% 30.04 in 10.0 mi WSW 4.6 mph - N/A   Mostly Cloudy
4:23 AM 80.6 °F 87.1 °F 77.0 °F 89% 30.03 in 10.0 mi SSW 5.8 mph - N/A Rain Light Rain
4:55 AM 79.3 °F - 76.8 °F 92% 30.05 in 10.0 mi SW 3.5 mph - 0.01 in   Mostly Cloudy
6:41 AM 78.8 °F - 77.0 °F 94% 30.05 in 10.0 mi West 2.3 mph - N/A Rain Light Rain
6:55 AM 77.7 °F - 73.6 °F 87% 30.07 in 10.0 mi Variable 6.9 mph - 0.00 in Rain Light Rain
7:09 AM 77.0 °F - 73.4 °F 89% 30.05 in 10.0 mi West 2.3 mph - N/A   Mostly Cloudy
7:55 AM 79.9 °F - 76.8 °F 90% 30.08 in 10.0 mi Variable 2.3 mph - 0.00 in   Mostly Cloudy
8:08 AM 80.6 °F 87.1 °F 77.0 °F 89% 30.07 in 10.0 mi WSW 5.8 mph - N/A Rain Light Rain Showers
8:40 AM 80.6 °F 85.4 °F 73.4 °F 79% 30.07 in 2.0 mi WSW 16.1 mph 27.6 mph N/A Rain , Thunderstorm Light Thunderstorms and Rain
8:50 AM 75.2 °F - 71.6 °F 89% 30.08 in 1.5 mi West 8.1 mph 19.6 mph N/A Rain , Thunderstorm Heavy Thunderstorms and Rain
8:55 AM 74.8 °F - 72.3 °F 92% 30.08 in 3.0 mi Variable 4.6 mph - 0.15 in Rain , Thunderstorm Light Thunderstorms and Rain
8:59 AM 75.2 °F - 71.6 °F 89% 30.08 in 5.0 mi Variable 2.3 mph - N/A Rain , Thunderstorm Light Thunderstorms and Rain
9:23 AM 75.2 °F - 71.6 °F 89% 30.08 in 10.0 mi SW 2.3 mph - N/A Rain , Thunderstorm Light Rain
9:31 AM 75.2 °F - 71.6 °F 89% 30.08 in 10.0 mi SW 4.6 mph - N/A   Mostly Cloudy
9:55 AM 76.5 °F - 73.2 °F 90% 30.09 in 10.0 mi SW 3.5 mph - 0.01 in   Mostly Cloudy
10:55 AM 84.2 °F 93.4 °F 76.1 °F 77% 30.09 in 10.0 mi SW 9.2 mph - N/A   Mostly Cloudy
11:33 AM 82.4 °F 89.5 °F 75.2 °F 79% 30.07 in 7.0 mi SSW 13.8 mph - N/A Rain Light Rain Showers
11:37 AM 82.4 °F 89.5 °F 75.2 °F 79% 30.07 in 10.0 mi SSW 16.1 mph 23.0 mph N/A Rain , Thunderstorm Light Rain Showers
11:45 AM 80.6 °F 86.2 °F 75.2 °F 84% 30.06 in 1.5 mi SSW 13.8 mph 23.0 mph N/A Rain , Thunderstorm Heavy Rain Showers
11:55 AM 77.5 °F - 73.9 °F 89% 30.08 in 1.5 mi WSW 9.2 mph 17.3 mph 0.13 in Rain , Thunderstorm Thunderstorms and Rain
12:09 PM 77.0 °F - 73.4 °F 89% 30.08 in 2.0 mi WNW 3.5 mph - N/A Rain , Thunderstorm Thunderstorms and Rain
12:22 PM 75.2 °F - 73.4 °F 94% 30.08 in 3.0 mi Variable 5.8 mph - N/A Rain , Thunderstorm Light Thunderstorms and Rain
12:56 PM 74.7 °F - 72.9 °F 94% 30.09 in 7.0 mi SW 4.6 mph - 0.13 in Rain , Thunderstorm Light Thunderstorms and Rain
1:47 PM 75.2 °F - 71.6 °F 89% 30.06 in 7.0 mi Variable 4.6 mph - N/A Rain Light Rain Showers
1:55 PM 74.3 °F - 72.5 °F 94% 30.07 in 7.0 mi SW 4.6 mph - 0.02 in Rain Light Rain Showers
2:55 PM 76.3 °F - 74.1 °F 93% 30.07 in 10.0 mi SW 4.6 mph - 0.01 in   Mostly Cloudy
3:55 PM 78.3 °F - 73.8 °F 86% 30.07 in 10.0 mi SW 2.3 mph - 0.01 in   Mostly Cloudy
4:27 PM 78.8 °F - 75.2 °F 89% 30.05 in 7.0 mi SSW 5.8 mph - N/A Rain Light Rain
4:45 PM 78.8 °F - 75.2 °F 89% 30.04 in 10.0 mi South 8.1 mph - N/A   Overcast
4:55 PM 80.6 °F 86.9 °F 76.6 °F 88% 30.05 in 10.0 mi SSW 4.6 mph - 0.00 in   Overcast
5:20 PM 80.6 °F 87.1 °F 77.0 °F 89% 30.03 in 10.0 mi SW 5.8 mph - N/A Thunderstorm Thunderstorm
5:36 PM 80.6 °F 87.1 °F 77.0 °F 89% 30.04 in 7.0 mi SW 5.8 mph - N/A Rain , Thunderstorm Light Rain
5:45 PM 80.6 °F 87.1 °F 77.0 °F 89% 30.03 in 7.0 mi SSW 3.5 mph - N/A Rain , Thunderstorm Light Thunderstorms and Rain
5:55 PM 80.1 °F 85.7 °F 76.6 °F 89% 30.04 in 7.0 mi South 2.3 mph - 0.00 in Rain , Thunderstorm Light Thunderstorms and Rain
6:03 PM 80.6 °F 87.1 °F 77.0 °F 89% 30.03 in 3.0 mi WNW 6.9 mph - N/A Rain , Thunderstorm Light Thunderstorms and Rain
6:11 PM 78.8 °F - 77.0 °F 94% 30.03 in 1.1 mi NW 2.3 mph - N/A Rain , Thunderstorm Heavy Thunderstorms and Rain
6:21 PM 78.8 °F - 77.0 °F 94% 30.04 in 5.0 mi North 3.5 mph - N/A Rain , Thunderstorm Light Thunderstorms and Rain
6:33 PM 77.0 °F - 75.2 °F 94% 30.04 in 7.0 mi West 3.5 mph - N/A Rain , Thunderstorm Light Thunderstorms and Rain
6:55 PM 75.7 °F - 73.2 °F 92% 30.05 in 3.0 mi West 6.9 mph - 0.26 in Rain , Thunderstorm Thunderstorms and Rain
7:09 PM 75.2 °F - 73.4 °F 94% 30.06 in 5.0 mi WSW 6.9 mph - N/A Rain , Thunderstorm Light Thunderstorms and Rain
7:24 PM 75.2 °F - 73.4 °F 94% 30.06 in 7.0 mi West 6.9 mph - N/A Rain , Thunderstorm Light Thunderstorms and Rain
7:36 PM 73.4 °F - 71.6 °F 94% 30.06 in 7.0 mi West 4.6 mph - N/A Rain Light Rain
7:55 PM 73.8 °F - 71.8 °F 93% 30.07 in 7.0 mi West 3.5 mph - 0.06 in Rain Light Rain
8:43 PM 73.4 °F - 71.6 °F 94% 30.07 in 10.0 mi WSW 2.3 mph - N/A Thunderstorm Thunderstorm
8:50 PM 73.4 °F - 71.6 °F 94% 30.08 in 1.5 mi West 9.2 mph - N/A Rain , Thunderstorm Heavy Thunderstorms and Rain
8:55 PM 73.2 °F - 71.4 °F 94% 30.08 in 4.0 mi WSW 5.8 mph - 0.18 in Rain , Thunderstorm Heavy Thunderstorms and Rain
9:16 PM 73.4 °F - 71.6 °F 94% 30.07 in 7.0 mi SW 5.8 mph - N/A Rain Light Rain
9:55 PM 72.9 °F - 71.6 °F 96% 30.08 in 7.0 mi West 1.2 mph - 0.05 in Rain Light Rain
10:55 PM 73.8 °F - 72.5 °F 96% 30.06 in 7.0 mi WSW 4.6 mph - 0.05 in Rain Light Rain
11:55 PM 73.8 °F - 72.5 °F 96% 30.04 in 10.0 mi WSW 4.6 mph - 0.01 in   Overcast